Preview of NWS' New Version of Forecast
This preview is not operational and should not be used for support decisions.
Latest weather observations around

Houston, Houston Hobby Airport (KHOU)

Using International System of Units (Switch to English Units)
Date/ Time (CDT) Wind (kph) Vis. (km) Weather Sky Cond. Temp (°C) Rel. Humidity Wind Chill (°C) Heat Index (°C) Pressure Precip. (cm)
Air Dwpt 6 hour Altimeter (hPa) Sea level (hPa) 1 hr 3 hr 6 hr
Max Min
Apr 20 20:53 S 18 16.09 Clear CLR 20 10     53%     1016.3 1016.6      
Apr 20 19:53 S 18 16.09 Clear CLR 22 9     45%   21 1015.6 1016.1      
Apr 20 18:53 WSW 8 16.09 Clear CLR 24 7     32%   24 1015.6 1016.1      
Apr 20 17:53 WSW 9 16.09 Clear CLR 25 7     31%   24 1016.3 1016.6      
Apr 20 16:53 SW 9 16.09 Clear CLR 25 7     31%   24 1016.6 1016.9      
Apr 20 15:53 Calm 16.09 Clear CLR 25 5     28%   24 1017.3 1017.8      
Apr 20 14:53 SSW 15 16.09 Clear CLR 25 6     30%   24 1018.3 1018.8      
Apr 20 13:53 W 8 16.09 Clear CLR 24 5     29%   24 1019.3 1019.6      
Apr 20 12:53 8 16.09 Clear CLR 23 4     28%   22 1020 1020.2      
Apr 20 11:53 5 16.09 Clear CLR 22 5     34%   21 1020.3 1020.9      
Apr 20 10:53 Calm 16.09 Clear CLR 21 3     32%     1020.7 1021.1      
Apr 20 09:53 NW 8 16.09 Clear CLR 19 5     39%     1020.7 1020.9      
Apr 20 08:53 Calm 16.09 Clear CLR 17 7     50%     1020 1020.5      
Apr 20 07:53 Calm 16.09 Clear CLR 13 7     69%     1019.7 1020      
Apr 20 06:53 Calm 16.09 Clear CLR 11 6     74%     1019 1019.3      
Apr 20 05:53 Calm 16.09 Clear CLR 11 7     77%     1018.3 1018.7      
Apr 20 04:53 Calm 16.09 Clear CLR 11 7     74%     1018.3 1018.5      
Apr 20 03:53 SW 8 16.09 Clear CLR 12 7     71%     1018 1018.5      
Apr 20 02:53 Calm 16.09 Clear CLR 12 7     69%     1018 1018.5      
Apr 20 01:53 Calm 16.09 Clear CLR 13 7     64%     1018.6 1018.9      
Apr 20 00:53 Calm 16.09 Clear CLR 13 6     62%     1018.6 1019.1      
Apr 19 23:53 WNW 5 16.09 Clear CLR 16 4     46%     1018.6 1019.1      
Apr 19 22:53 NW 11 16.09 Clear CLR 16 4     46%     1018.6 1018.9      
Apr 19 21:53 NNW 17 16.09 Clear CLR 18 4     40%     1018 1018.2      
Apr 19 20:53 NNW 17 16.09 Clear CLR 18 3     36%     1016.9 1017.2      
Apr 19 19:53 NNW 18 16.09 Clear CLR 19 2     31%     1015.9 1016.4      
Apr 19 18:53 NNW 30 16.09 Clear CLR 21 3     30%     1015.2 1015.8     0
Apr 19 17:53 NW 30 16.09 Mostly Clear FEW060 22 3     28%   21 1014.9 1015.4      
Apr 19 16:53 NNW 30 16.09 Mostly Clear FEW060 23 2     25%   22 1014.9 1015.2      
Apr 19 15:53   16.09 Mostly Clear FEW065 23 3     26%   22 1015.2 1015.6      
Apr 19 14:53   16.09 Mostly Clear FEW065 23 4     28%   22 1015.6 1016.1      
Apr 19 13:53 NNW 35 16.09 Mostly Clear and Windy FEW065 23 4     29%   22 1016.3 1016.7 0    
Apr 19 12:53 NNW 35 16.09 Mostly Clear and Windy FEW060 23 5     31%   22 1016.6 1017.1      
Apr 19 11:53 NNW 37 16.09 Mostly Clear and Windy FEW050 21 6     36%     1017.3 1017.7      
Apr 19 10:53   16.09 Clear CLR 20 7     42%     1017.3 1017.6      
Apr 19 09:53 NW 18 16.09 Clear CLR 19 7     47%     1016.6 1017.1      
Apr 19 08:53 NW 24 16.09 Mostly Clear FEW150 18 7     50%     1015.9 1016.5      
Apr 19 07:53 WNW 21 16.09 Mostly Clear FEW160 16 8     60%     1015.9 1016.2      
Apr 19 06:53 WNW 17 16.09 Partly Cloudy SCT160 14 7     62%     1014.9 1015.3      
Apr 19 05:53 WNW 13 16.09 Mostly Clear FEW160 14 8     65%     1013.9 1014.2      
Apr 19 04:53 W 13 16.09 Mostly Clear FEW170 14 8     69%     1013.2 1013.7      
Apr 19 03:53 W 13 16.09 Partly Cloudy SCT160 15 8     64%     1012.9 1013.5      
Apr 19 02:53 WNW 13 16.09 Partly Cloudy SCT140 15 8     64%     1013.2 1013.7      
Apr 19 01:53 WNW 11 16.09 Mostly Clear FEW120 17 8     56%     1013.6 1013.9      
Apr 19 00:53 WNW 9 16.09 Clear CLR 17 8     54%     1013.6 1013.9      
Apr 18 23:53 WNW 13 16.09 Clear CLR 18 9     56%     1013.6 1013.9      
Apr 18 22:53 WNW 15 16.09 Clear CLR 18 10     58%     1013.6 1013.9      
Apr 18 21:53 WNW 11 16.09 Clear CLR 18 12     65%     1012.5 1013      
Apr 18 20:53 NNW 28 16.09 Mostly Clear FEW045 FEW060 20 11     57%     1011.2 1011.7      
Apr 18 19:53 NNW 26 16.09 Mostly Cloudy FEW035 SCT046 BKN060 21 14     65%     1009.8 1010.2      
Apr 18 18:53 NW 32 16.09 Mostly Cloudy and Windy FEW026 SCT050 BKN090 21 15     68%     1008.5 1008.9 0   0
Apr 18 17:53 NW 32 16.09 Mostly Cloudy and Windy BKN049 BKN070 24 14     54%   24 1006.4 1006.9      
Apr 18 16:53   16.09 Partly Cloudy SCT045 SCT060 24 13     52%   24 1005.8 1006.2      
Apr 18 15:53 NW 32 16.09 Mostly Cloudy and Windy SCT039 BKN055 24 14     55%   24 1006.1 1006.5      
Apr 18 14:53 WNW 22 16.09 Mostly Cloudy SCT035 BKN050 24 14     55%   24 1006.4 1006.8      
Apr 18 13:53 WNW 18 16.09 Mostly Cloudy BKN030 23 15     61%   23 1006.1 1006.5      
Apr 18 13:15 W 22 16.09 Mostly Cloudy BKN020 22 16     68%   22 1006.1        
Apr 18 12:53 WNW 18 16.09 Mostly Cloudy BKN012 21 17     76%     1006.4 1006.7     1
Apr 18 12:39 NNW 13 16.09 Mostly Cloudy BKN010 BKN060 21 17     78%     1006.8        
Apr 18 11:53 N 11 16.09 Cloudy FEW010 OVC060 19 16     84%     1006.1 1006.7      
Apr 18 10:53 NNE 17 16.09 Cloudy SCT009 OVC060 18 16     90%     1005.8 1006.3 0    
Apr 18 10:29 ENE 21 16.09 Light Rain FEW006 BKN070 OVC120 17 16     90%     1005.4   0    
Apr 18 10:07   9.66 Rain and Fog/Mist SCT006 OVC120 17 16     90%     1003.7   0    
Apr 18 09:59 ENE 13 6.44 Thunderstorms and Rain and Fog/Mist SCT025 BKN050 OVC120 17 16     96%     1006.4   0    
Apr 18 09:53 E 22 2.41 Thunderstorms and Heavy Rain and Fog/Mist BKN020 OVC035 17 16     93%     1006.1 1006.4 1 1  
Apr 18 09:46   1.61 Thunderstorms and Heavy Rain and Fog/Mist BKN020 OVC045 17 16     93%     1005.1   1    
Apr 18 09:42 N 13 2.41 Thunderstorms and Heavy Rain and Fog/Mist BKN025 OVC045 17 16     90%     1007.5   1    
Apr 18 09:38 NNW 15 8.05 Thunderstorms and Rain and Fog/Mist FEW015 FEW030 OVC045 17 16     90%     1008.8   0    
Apr 18 09:29 NNE 22 8.05 Thunderstorms and Rain and Fog/Mist FEW030 OVC045 17 16     90%     1006.8   0    
Apr 18 09:17 N 18 3.22 Thunderstorms and Heavy Rain and Fog/Mist SCT030 OVC055 17 16     90%     1007.8   0    
Apr 18 09:01 N 18 8.05 Thunderstorms and Rain and Fog/Mist FEW015 BKN045 OVC060 17 16     90%     1007.8   0    
Apr 18 08:53 NNE 17 9.66 Rain and Fog/Mist FEW015 OVC050 17 16     90%     1008.1 1008.4 0    
Apr 18 07:53 NNE 17 16.09 Light Rain FEW014 BKN055 OVC070 17 16     90%     1007.5 1007.8 0    
Apr 18 07:19 NNE 24 11.27 Light Rain FEW010 BKN055 OVC075 17 16     90%     1007.5   0    
Apr 18 06:53   11.27 Thunderstorms and Heavy Rain SCT025 OVC055 17 16     90%     1007.8 1008.1 1   1
Apr 18 06:19 N 22 11.27 Thunderstorms and Rain FEW025 OVC042 18 16     87%     1007.5   0    
Apr 18 05:53 N 24 14.48 Light Rain FEW030 BKN040 OVC060 18 16     87%     1007.5 1007.8 0    
Apr 18 05:36   11.27 Thunderstorms and Rain FEW030 BKN040 OVC060 18 16     90%     1007.5   0    
Apr 18 04:53   11.27 Light Rain SCT026 BKN040 OVC070 18 16     87%     1008.1 1008.7 0    
Apr 18 04:51   11.27 Light Rain SCT026 BKN040 OVC070 19 16     83%     1008.1   0    
Apr 18 04:43   11.27 Rain and Squalls SCT026 BKN042 OVC070 19 16     79%     1007.8   0    
Apr 18 04:39   11.27 Light Rain and Squalls SCT026 BKN042 OVC070 22 18     76%   22 1008.1   0    
Apr 18 03:53 SW 15 14.48 Mostly Cloudy SCT016 BKN026 BKN100 24 20     79%   24 1006.4 1007      
Apr 18 03:18 WSW 18 14.48 Cloudy BKN015 OVC021 24 21     82%   24 1006.4        
Apr 18 02:53 S 26 14.48 Cloudy OVC013 23 21     85%   24 1003.7 1004.2      
Apr 18 01:53 SSE 32 12.87 Cloudy and Windy OVC012 23 21     85%   24 1003.1 1003.4      
Apr 18 00:53 SSE 32 11.27 Cloudy and Windy BKN012 OVC020 23 21     87%   24 1005.8 1006.1     0
Apr 17 23:53 SSE 24 12.87 Cloudy OVC010 23 21     87%   24 1006.8 1007.2      
Apr 17 22:53 SSE 26 12.87 Cloudy OVC010 23 21     87%   24 1007.8 1008.1      
Apr 17 22:43 SSE 22 12.87 Cloudy OVC010 23 21     87%   24 1007.8        
Apr 17 21:53 SE 17 12.87 Cloudy OVC009 23 21     87%   24 1008.1 1008.4   0  
May 14 04:53 ESE 5 16.09 Clear   22 22     100%   23 1014.6 1014.9      
May 12 17:53 SE 18 16.09 Partly Cloudy SCT040 30 22     61%   33 1014.2 1014.6      
May 12 04:37 SSE 8 16.09 Partly Cloudy SCT016 SCT040 23 23     97%   24 1014.9        
May 12 01:53 9 16.09 Partly Cloudy SCT030 SCT250 24 23     94%   25 1015.2 1015.5      
May 11 16:53 SE 26 16.09 Partly Cloudy SCT042 29 21     61%   31 1013.9 1014.3      
May 11 07:53 SSE 9 16.09 Mostly Clear FEW020 23 22     94%   24 1015.9 1016.3      
Jun 12 04:53 ESE 8 16.09 Mostly Clear FEW050 26 24     93%   27 1012.5 1012.9      
Jun 11 21:53 ESE 9 16.09 Clear   27 24     82%   30 1012.9 1013.3      
Jun 11 12:53 9 16.09 Mostly Cloudy SCT031 BKN050 BKN070 30 23     67%   34 1013.6 1013.9      
Jun 08 18:53 NE 13 16.09 Clear   30 16     42%   30 1010.8 1011.4      
Jun 08 03:53 ENE 8 16.09 Clear CLR 23 16     64%   23 1012.9 1013.2      
Jun 05 22:53 Calm 16.09 Mostly Cloudy SCT024 BKN100 BKN250 23 22     94%   24 1007.1 1007.6 0